Location: Moscow
(55.7500°N, 37.5830°E)
Time: 20:34:04
(UTC+03:00)

Vanguard 1 Rocket - All Passes

Search period start: 06 December 2021 00:00
Search period end: 16 December 2021 00:00
Orbit: 650 x 4226 km, 34.3° (Epoch: 04 December)

Date Brightness Start Highest point End Pass type
(mag) Time Alt. Az. Time Alt. Az. Time Alt. Az.
06 Dec - 02:09:35 10° S 02:16:58 21° SE 02:27:53 10° ESE visible
06 Dec - 04:30:48 10° SW 04:41:48 33° S 04:59:27 10° ESE visible
06 Dec - 06:55:13 10° WSW 07:08:36 30° SSW 07:27:31 10° SSE visible
06 Dec - 09:24:51 10° WSW 09:35:25 16° SW 09:47:32 10° SSW daylight
07 Dec - 01:02:21 10° SSE 01:06:23 13° SE 01:11:21 10° ESE visible
07 Dec - 03:20:49 10° SW 03:29:59 29° SSE 03:44:43 10° ESE visible
07 Dec - 05:43:56 10° WSW 05:55:58 32° S 06:14:24 10° SE visible
07 Dec - 08:10:34 10° WSW 08:22:56 22° SSW 08:38:41 10° S daylight
08 Dec - 02:11:34 10° SSW 02:18:46 22° SSE 02:29:41 10° ESE visible
08 Dec - 04:33:17 10° SW 04:43:42 31° S 05:00:27 10° SE visible
08 Dec - 06:58:06 10° WSW 07:10:21 26° SSW 07:27:28 10° SSE visible
08 Dec - 09:31:05 10° WSW 09:36:49 12° SW 09:43:00 10° SSW daylight
09 Dec - 01:03:36 10° S 01:08:07 14° SE 01:13:59 10° ESE visible
09 Dec - 03:23:13 10° SW 03:31:56 28° SSE 03:46:01 10° ESE visible
09 Dec - 05:46:40 10° WSW 05:57:52 29° SSW 06:14:50 10° SE visible
09 Dec - 08:14:23 10° WSW 08:24:32 17° SW 08:37:04 10° S daylight
10 Dec - 02:13:45 10° SSW 02:20:42 23° SSE 02:31:20 10° ESE visible
10 Dec - 04:35:55 10° SW 04:45:42 29° S 05:01:17 10° SE visible
10 Dec - 07:01:18 10° WSW 07:12:08 22° SSW 07:26:55 10° SSE visible
11 Dec - 01:05:18 10° S 01:09:59 16° SE 01:16:16 10° ESE visible
11 Dec - 03:25:44 10° SW 03:33:58 27° S 03:47:12 10° SE visible
11 Dec - 05:49:36 10° WSW 05:59:49 25° SSW 06:14:56 10° SSE visible
11 Dec - 08:19:40 10° WSW 08:26:12 13° SW 08:33:42 10° SSW daylight
12 Dec - 02:16:06 10° SSW 02:22:44 23° SSE 02:32:53 10° ESE visible
12 Dec - 04:38:42 10° WSW 04:47:46 26° S 05:01:53 10° SE visible
12 Dec - 07:05:02 10° WSW 07:13:59 17° SSW 07:25:36 10° S visible
13 Dec - 01:07:18 10° S 01:11:59 16° SSE 01:18:19 10° ESE visible
13 Dec - 03:28:23 10° SW 03:36:06 25° S 03:48:13 10° SE visible
13 Dec - 05:52:49 10° WSW 06:01:49 21° SSW 06:14:36 10° SSE visible
14 Dec - 02:18:37 10° SSW 02:24:52 22° SSE 02:34:18 10° SE visible
14 Dec - 04:41:41 10° SW 04:49:53 23° S 05:02:12 10° SSE visible
14 Dec - 07:10:01 10° SW 07:15:53 13° SSW 07:22:49 10° SSW visible
15 Dec - 01:09:33 10° SSW 01:14:04 16° SSE 01:20:12 10° ESE visible
15 Dec - 03:31:12 10° SW 03:38:17 23° S 03:49:04 10° SE visible
15 Dec - 05:56:34 10° SW 06:03:53 16° SSW 06:13:34 10° S visible
